STARLINK-1993 (47588 NORAD) Tracking and Keplerian Element Data
This shows tracking and keplerian element data for the satellite.
Feedback or suggestion? Click here.
Element | Value |
Catalog | 47588 |
Name | STARLINK-1993 |
Epoch Orbit | 1175 |
Epoch Day | 106.25002315 |
Epoch Year | 2021 |
RAAN | 136.3552 |
Inclination | 53.0536 |
Eccentricity | 0.0004224 |
Argument of Perigee | 11.685 |
Mean Anonmoly | 144.595 |
Mean Motion | 15.62800034 |
Decay Rate | -0.00048426 |
L1 | 1 47588U 21009AS 21106.25002315 -.00048426 00000-0 -52494-3 0 9995 |
L2 | 2 47588 53.0536 136.3552 0004224 11.6850 144.5950 15.62800034 11755 |
Live tracking and technical data element details for STARLINK-1993 (NORAD 47588). STARLINK-1993 can be tracked NOW for your location showing map with azimuth and elevation plus other details from your city location.
Track the satellite on the map from your city or location and see movement details for azimuth, elevation, latitude, longitude, range, height, and movement on the map or in text.
IsCatalogInMostPopularTable: catalog: 47588, numindb: 18
Update: records affected: 1
GetName: 47588 STARLINK-1993
Hit Count: updated at: Fri, 16 Apr 2021 12:07:26 GMT